TimeCDT,TemperatureF,Dew PointF,Humidity,Sea Level PressureIn,VisibilityMPH,Wind Direction,Wind SpeedMPH,Gust SpeedMPH,PrecipitationIn,Events,Conditions,WindDirDegrees,DateUTC
12:53 AM,55.9,53.1,90,29.79,10.0,Calm,Calm,-,N/A,,Clear,0,2013-07-23 05:53:00
1:39 AM,51.8,51.8,100,29.81,1.8,West,3.5,-,N/A,,Clear,260,2013-07-23 06:39:00
1:50 AM,51.8,51.8,100,29.81,4.0,WNW,4.6,-,N/A,,Clear,290,2013-07-23 06:50:00
1:53 AM,53.1,52.0,96,29.80,10.0,WNW,4.6,-,N/A,,Clear,290,2013-07-23 06:53:00
2:53 AM,52.0,50.0,93,29.80,10.0,West,5.8,-,N/A,,Clear,280,2013-07-23 07:53:00
3:53 AM,52.0,50.0,93,29.80,10.0,West,6.9,-,N/A,,Clear,280,2013-07-23 08:53:00
4:53 AM,51.1,48.9,92,29.81,10.0,WNW,4.6,-,N/A,,Clear,290,2013-07-23 09:53:00
5:16 AM,53.6,50.0,88,29.83,10.0,WNW,3.5,-,N/A,,Mostly Cloudy,300,2013-07-23 10:16:00
5:53 AM,53.1,50.0,89,29.83,10.0,Calm,Calm,-,N/A,,Mostly Cloudy,0,2013-07-23 10:53:00
6:14 AM,53.6,48.2,82,29.86,10.0,Variable,6.9,-,N/A,,Scattered Clouds,0,2013-07-23 11:14:00
6:53 AM,54.0,48.0,80,29.86,10.0,Variable,5.8,16.1,N/A,,Scattered Clouds,0,2013-07-23 11:53:00
7:04 AM,53.6,46.4,77,29.88,10.0,NNW,5.8,16.1,N/A,,Mostly Cloudy,340,2013-07-23 12:04:00
7:53 AM,54.0,46.9,77,29.89,10.0,North,5.8,20.7,N/A,,Overcast,360,2013-07-23 12:53:00
8:53 AM,54.0,45.0,72,29.92,10.0,Variable,6.9,21.9,N/A,,Overcast,0,2013-07-23 13:53:00
9:53 AM,57.0,45.0,64,29.95,10.0,North,9.2,17.3,N/A,,Mostly Cloudy,10,2013-07-23 14:53:00
10:53 AM,59.0,45.0,60,29.97,10.0,Variable,6.9,16.1,N/A,,Overcast,0,2013-07-23 15:53:00
11:53 AM,60.1,46.0,60,29.98,10.0,North,9.2,17.3,N/A,,Overcast,360,2013-07-23 16:53:00
12:53 PM,62.1,46.0,56,29.99,10.0,North,8.1,16.1,N/A,,Mostly Cloudy,10,2013-07-23 17:53:00
1:53 PM,64.0,46.0,52,29.99,10.0,Variable,5.8,17.3,N/A,,Mostly Cloudy,0,2013-07-23 18:53:00
2:53 PM,64.0,43.0,46,30.01,10.0,NNE,8.1,19.6,N/A,,Partly Cloudy,20,2013-07-23 19:53:00
3:53 PM,64.9,43.0,45,30.00,10.0,North,10.4,16.1,N/A,,Partly Cloudy,360,2013-07-23 20:53:00
4:53 PM,64.9,44.1,47,30.01,10.0,Variable,5.8,-,N/A,,Clear,0,2013-07-23 21:53:00
5:53 PM,64.0,43.0,46,30.01,10.0,North,8.1,-,N/A,,Clear,360,2013-07-23 22:53:00
6:53 PM,63.0,42.1,46,30.02,10.0,North,3.5,-,N/A,,Clear,350,2013-07-23 23:53:00
7:53 PM,61.0,45.0,56,30.03,10.0,Calm,Calm,-,N/A,,Clear,0,2013-07-24 00:53:00
8:53 PM,55.9,46.0,69,30.04,10.0,Calm,Calm,-,N/A,,Clear,0,2013-07-24 01:53:00
9:53 PM,54.0,45.0,72,30.06,10.0,Calm,Calm,-,N/A,,Clear,0,2013-07-24 02:53:00
10:53 PM,48.9,46.9,93,30.05,10.0,Calm,Calm,-,N/A,,Clear,0,2013-07-24 03:53:00
11:53 PM,46.9,44.1,90,30.06,10.0,Calm,Calm,-,N/A,,Clear,0,2013-07-24 04:53:00